EW7237 Weather Reports


time (UTC)temp
C
wind
direction
speed
KPH
gust
KPH
rain 1hr
cm
rain 24hr
cm
rain mn
cm
humidity
%
barometer
mb
20260904044538 15 117 0.0 0.0 0.00 0.00 0.00 80 1019.1
20260904043119 15 117 0.0 0.0 0.00 0.00 0.00 79 1019.1
20260904041528 15 117 0.0 0.0 0.00 0.00 0.00 78 1019.3
20260904040042 16 117 0.0 0.0 0.00 0.00 0.00 76 1019.4
20260904034559 16 117 0.0 0.0 0.00 0.00 0.00 73 1019.4
20260904033010 17 117 0.0 0.0 0.00 0.00 0.00 72 1019.3
20260904031529 17 117 0.0 1.6 0.00 0.00 0.00 72 1019.5
20260904030057 17 117 0.0 0.0 0.00 0.00 0.00 71 1019.5
20260904024533 17 117 0.0 0.0 0.00 0.00 0.00 71 1019.6
20260904023012 17 117 0.0 0.0 0.00 0.00 0.00 70 1019.6
20260904021536 18 117 0.0 0.0 0.00 0.00 0.00 66 1019.6
20260904020051 19 117 0.0 0.0 0.00 0.00 0.00 61 1019.8
20260904014514 18 117 0.0 1.6 0.00 0.00 0.00 61 1019.8
20260904013032 18 117 0.0 1.6 0.00 0.00 0.00 63 1019.8
20260904011547 17 117 0.0 1.6 0.00 0.00 0.00 67 1019.9
20260904010002 17 117 0.0 0.0 0.00 0.00 0.00 76 1019.9
20260904004522 17 117 0.0 0.0 0.00 0.00 0.00 77 1020.0
20260904003041 17 117 0.0 0.0 0.00 0.00 0.00 76 1020.1
20260904001601 17 117 0.0 0.0 0.00 0.00 0.00 76 1020.2
20260904000014 17 117 0.0 0.0 0.00 0.00 0.00 76 1020.4
20260903234521 17 117 0.0 0.0 0.00 0.00 0.00 76 1020.5
20260903233040 17 117 0.0 0.0 0.00 0.00 0.00 75 1020.6
20260903231612 17 117 0.0 0.0 0.00 0.00 0.00 75 1020.7
20260903230035 17 117 0.0 0.0 0.00 0.00 0.00 75 1020.7
20260903224600 17 117 0.0 0.0 0.00 0.00 0.00 74 1020.7
20260903223013 17 117 0.0 0.0 0.00 0.00 0.00 74 1020.9
20260903221535 17 117 0.0 0.0 0.00 0.00 0.00 75 1020.9
20260903220034 17 117 0.0 0.0 0.00 0.00 0.00 74 1020.9
20260903214602 17 117 0.0 0.0 0.00 0.00 0.00 73 1020.7
20260903213024 17 117 0.0 0.0 0.00 0.00 0.00 72 1020.7
20260903211537 17 117 0.0 0.0 0.00 0.00 0.00 72 1020.3
20260903210002 18 117 0.0 0.0 0.00 0.00 0.00 72 1020.7
20260903204542 17 117 0.0 0.0 0.00 0.00 0.00 74 1020.9
20260903203003 18 117 0.0 0.0 0.00 0.00 0.00 71 1020.8
20260903201539 18 117 0.0 0.0 0.00 0.00 0.00 69 1020.6
20260903200052 18 117 0.0 0.0 0.00 0.00 0.00 67 1020.3
20260903194559 19 117 0.0 0.0 0.00 0.00 0.00 65 1020.3
20260903193008 20 117 0.0 0.0 0.00 0.00 0.00 62 1019.9
20260903191541 21 117 0.0 0.0 0.00 0.00 0.00 56 1020.0
20260903184511 21 117 0.0 0.0 0.00 0.00 0.00 55 1019.9
20260903183027 21 117 0.0 3.2 0.00 0.00 0.00 54 1019.6
20260903181550 21 117 0.0 0.0 0.00 0.00 0.00 53 1019.7
20260903180007 22 117 0.0 0.0 0.00 0.00 0.00 53 1019.5
20260903174535 22 117 0.0 0.0 0.00 0.00 0.00 51 1019.2
20260903173057 22 117 0.0 4.8 0.00 0.00 0.00 50 1019.2
20260903171527 22 117 0.0 8.0 0.00 0.00 0.00 49 1019.4
20260903170044 23 117 0.0 4.8 0.00 0.00 0.00 49 1019.3
20260903164601 23 117 0.0 4.8 0.00 0.00 0.00 48 1019.3
20260903163030 23 117 0.0 11.3 0.00 0.00 0.00 46 1019.2
20260903161544 23 117 0.0 11.3 0.00 0.00 0.00 45 1019.3
20260903160106 23 117 4.8 20.9 0.00 0.00 0.00 43 1019.2
20260903154519 24 117 1.6 17.7 0.00 0.00 0.00 41 1019.3
20260903153033 25 117 1.6 22.5 0.00 0.00 0.00 43 1019.3
20260903151504 24 117 0.0 16.1 0.00 0.00 0.00 43 1019.3
20260903150032 25 117 0.0 11.3 0.00 0.00 0.00 42 1019.2
20260903144542 25 117 3.2 14.5 0.00 0.00 0.00 45 1019.4
20260903143101 24 117 8.0 22.5 0.00 0.00 0.00 46 1019.5
20260903141512 24 117 4.8 24.1 0.00 0.00 0.00 47 1019.6
20260903140025 24 117 4.8 20.9 0.00 0.00 0.00 45 1019.6
20260903134542 24 116 4.8 20.9 0.00 0.00 0.00 47 1019.6
20260903133006 24 117 3.2 17.7 0.00 0.00 0.00 47 1019.6
20260903131519 25 117 8.0 24.1 0.00 0.00 0.00 45 1019.7
20260903130032 25 116 1.6 19.3 0.00 0.00 0.00 46 1019.5
20260903124504 25 116 4.8 19.3 0.00 0.00 0.00 46 1019.6
20260903123032 25 116 4.8 20.9 0.00 0.00 0.00 48 1019.8
20260903121603 25 116 11.3 20.9 0.00 0.00 0.00 45 1019.8
20260903120040 25 115 4.8 20.9 0.00 0.00 0.00 46 1020.0
20260903114617 25 115 4.8 20.9 0.00 0.00 0.00 47 1019.9
20260903113021 25 115 1.6 16.1 0.00 0.00 0.00 45 1020.0
20260903111617 25 115 9.7 25.7 0.00 0.00 0.00 47 1020.0
20260903110015 25 115 4.8 25.7 0.00 0.00 0.00 48 1019.9
20260903104537 25 115 1.6 20.9 0.00 0.00 0.00 48 1020.1
20260903103105 24 115 1.6 12.9 0.00 0.00 0.00 51 1020.1
20260903101520 23 115 0.0 11.3 0.00 0.00 0.00 52 1020.4
20260903100049 24 115 1.6 16.1 0.00 0.00 0.00 51 1020.5
20260903094510 25 115 0.0 12.9 0.00 0.00 0.00 50 1020.7
20260903093057 24 115 0.0 8.0 0.00 0.00 0.00 52 1020.8
20260903091514 23 115 3.2 14.5 0.00 0.00 0.00 54 1021.0
20260903090040 23 115 0.0 8.0 0.00 0.00 0.00 54 1020.9
20260903084547 22 115 1.6 19.3 0.00 0.00 0.00 55 1020.9
20260903083004 22 115 0.0 3.2 0.00 0.00 0.00 55 1020.9
20260903081533 21 115 1.6 11.3 0.00 0.00 0.00 57 1020.8
20260903080046 22 115 0.0 0.0 0.00 0.00 0.00 58 1020.9
20260903074517 21 115 0.0 11.3 0.00 0.00 0.00 58 1020.9
20260903073027 21 115 0.0 0.0 0.00 0.00 0.00 62 1021.1
20260903071631 19 115 0.0 0.0 0.00 0.00 0.00 71 1021.4
20260903070022 17 115 0.0 1.6 0.00 0.00 0.00 74 1021.3
20260903064530 16 115 0.0 0.0 0.00 0.00 0.00 76 1021.3
20260903063106 15 115 0.0 0.0 0.00 0.00 0.00 84 1021.2
20260903061539 13 115 0.0 0.0 0.00 0.00 0.00 87 1021.3
20260903054544 10 115 0.0 0.0 0.00 0.00 0.00 95 1021.2
20260903053103 10 115 0.0 0.0 0.00 0.00 0.00 94 1021.1
20260903051519 10 115 0.0 0.0 0.00 0.00 0.00 94 1021.1
20260903050041 10 115 0.0 0.0 0.00 0.00 0.00 94 1021.1